Regional Weather Roundup
Issued by NWS Goodland, KS

Home | Current Version | Previous Version | Text Only | Print | Product List | Glossary On
Versions: 1 2 3 4 5 6 7 8 9 10 11 12 13 14 15 16 17 18 19 20 21 22 23 24 25 26 27 28 29 30 31 32 33 34 35 36 37 38 39 40 41 42 43 44 45 46 47 48 49 50
000
ASUS43 KGLD 210959
RWRGLD

GOODLAND FORECAST AREA HOURLY WEATHER ROUNDUP
NATIONAL WEATHER SERVICE GOODLAND KS
300 AM MST TUE FEB 21 2017

...OFFICIAL OBSERVATIONS...

CITY           SKY/WX    TMP DP  RH WIND       PRES   REMARKS
GOODLAND KS    CLOUDY    40  14  34 SW13      29.99F
HILL CITY KS   CLOUDY    33  25  72 W6        30.01F
IMPERIAL NEB   CLOUDY    34  18  52 SW9       29.96F
MCCOOK NEB     CLOUDY    29  23  78 S3        29.98F
AKRON CO       CLOUDY    47  11  23 SW18      29.97S
BURLINGTON CO  CLOUDY    35  13  40 SW10      30.00F
LIMON CO       CLOUDY    21  11  65 N5        30.03F
$$

...UNOFFICIAL OBSERVATIONS...

CITY           SKY/WX    TMP DP  RH WIND       PRES   REMARKS
NORTON KS      CLEAR     30  19  64 W9        29.99
SHARON SPRINGS   N/A     34  17  49 SW12        N/A
TRENTON NEB      N/A     38  32  79 W6          N/A
KIT CARSON CO    N/A     31  14  49 CALM        N/A
YUMA CO        FAIR      36  14  41 S12       29.97F
$$



USA.gov is the U.S. government's official web portal to all federal, state and local government web resources and services.